Hourly Data Report for October 05, 2017

All times are specified in Local Standard Time (LST). Add 1 hour to adjust for Daylight Saving Time where and when it is observed.

LUNENBURG
NOVA SCOTIA

44°21'36.094" N
64°17'46.082" W
3.80 m
8203210
XLB

Related Data

No related data is available for this station

Download Data

Hourly Data (October 2017)
Hourly Data Report for October 5, 2017
Temp Definition
°C
Dew Point Temp Definition
°C
Rel Hum Definition
%
Wind Dir Definition
10's deg

Wind Spd Definition
km/h
Visibility Definition
km
Stn Press Definition
kPa
Hmdx Definition


Wind Chill Definition


Weather Definition


TIME
00:00 14.1 13.2 95 22 18   101.48     LegendNANA
01:00 14.4 13.6 95 21 17   101.40     LegendNANA
02:00 14.8 14.0 95 21 22   101.37     LegendNANA
03:00 14.8 14.2 97 20 19   101.26     LegendNANA
04:00 15.1 14.3 95 23 20   101.25     LegendNANA
05:00 15.5 14.6 95 22 23   101.21     LegendNANA
06:00 15.9 14.8 93 22 21   101.16     LegendNANA
07:00 16.4 15.0 91 23 20   101.19     LegendNANA
08:00 17.2 15.3 88 24 20   101.22     LegendNANA
09:00 18.1 15.0 82 25 25   101.24     LegendNANA
10:00 19.1 14.5 75 26 27   101.23     LegendNANA
11:00 20.4 14.6 69 27 22   101.19     LegendNANA
12:00 20.6 13.8 65 28 25   101.15     LegendNANA
13:00 21.1 13.6 62 26 18   101.12     LegendNANA
14:00 21.2 11.4 53 26 29   101.10     LegendNANA
15:00 21.7 10.7 49 25 22   101.10     LegendNANA
16:00 21.1 10.5 51 25 21   101.14     LegendNANA
17:00 19.9 10.6 55 27 15   101.15     LegendNANA
18:00 18.4 11.3 63 27 13   101.10     LegendNANA
19:00 16.5 12.6 77 25 9   101.22     LegendNANA
20:00 15.5 12.4 82 24 9   101.33     LegendNANA
21:00 15.0 10.4 74 24 11   101.40     LegendNANA
22:00 14.8 9.9 73 25 14   101.41     LegendNANA
23:00 13.9 10.5 80 24 15   101.43     LegendNANA

Notes on Data Quality.

Legend

  • E = Estimated
  • M = Missing
  • NA = Not Available
  • ‡ = Partner data that is not subject to review by the National Climate Archives
Date modified: